,,,PA_Meas_PMT16A,,PR_Meas_QMR101_102,,RH_Meas_QMH101,,SR_Meas_QMS101,,TA_Meas_QMH101,,GenWind,,GenWind,
date,time,status,PA,status,PR,status,RH,status,SR,status,TA,status,DirAvg,status,SpdAvg,
2008-05-10, 00:00:04,VALID,1003.48,VALID,0,VALID,88.9756,VALID,0,VALID,25.633,VALID,76,VALID,0.728125,
2008-05-10, 00:01:04,VALID,1003.46,VALID,0,VALID,89.0519,VALID,0,VALID,25.6155,VALID,77,VALID,0.404297,
2008-05-10, 00:02:04,VALID,1003.45,VALID,0,VALID,89.2732,VALID,0,VALID,25.5765,VALID,80,VALID,0.610547,
2008-05-10, 00:03:04,VALID,1003.45,VALID,0,VALID,89.4486,VALID,0,VALID,25.5571,VALID,58,VALID,0.675,
2008-05-10, 00:04:04,VALID,1003.44,VALID,0,VALID,89.4334,VALID,0,VALID,25.5376,VALID,40,VALID,0.166797,
2008-05-10, 00:05:04,VALID,1003.48,VALID,0,VALID,89.6241,VALID,0,VALID,25.5376,VALID,50,VALID,0.275,
2008-05-10, 00:06:04,VALID,1003.43,VALID,0,VALID,89.6622,VALID,0,VALID,25.5551,VALID,50,VALID,0.229687,
2008-05-10, 00:07:04,VALID,1003.43,VALID,0,VALID,89.6241,VALID,0,VALID,25.5357,VALID,51,VALID,0.244531,
2008-05-10, 00:08:04,VALID,1003.42,VALID,0,VALID,89.6775,VALID,0.100563,VALID,25.5551,VALID,50,VALID,0.336328,
2008-05-10, 00:09:04,VALID,1003.46,VALID,0,VALID,89.7156,VALID,0.100563,VALID,25.5337,VALID,62,VALID,0.373047,
2008-05-10, 00:10:04,VALID,1003.41,VALID,0,VALID,89.6546,VALID,0.100563,VALID,25.5142,VALID,62,VALID,0.281641,
2008-05-10, 00:11:04,VALID,1003.41,VALID,0,VALID,89.6546,VALID,0.100563,VALID,25.5142,VALID,62,VALID,0.146484,
2008-05-10, 00:12:04,VALID,1003.4,VALID,0,VALID,89.7538,VALID,0,VALID,25.4772,VALID,62,VALID,0.253125,
2008-05-10, 00:13:04,VALID,1003.4,VALID,0,VALID,89.9903,VALID,0,VALID,25.3779,VALID,62,VALID,0.394922,
2008-05-10, 00:14:04,VALID,1003.37,VALID,0,VALID,90.2725,VALID,0,VALID,25.339,VALID,62,VALID,0.203516,
2008-05-10, 00:15:04,VALID,1003.31,VALID,0,VALID,90.4785,VALID,0.100563,VALID,25.2806,VALID,64,VALID,0.324219,
2008-05-10, 00:16:04,VALID,1003.34,VALID,0,VALID,90.7913,VALID,0,VALID,25.263,VALID,66,VALID,0.605859,
2008-05-10, 00:17:04,VALID,1003.29,VALID,0,VALID,90.9057,VALID,0,VALID,25.224,VALID,67,VALID,0.369531,
2008-05-10, 00:18:04,VALID,1003.29,VALID,0,VALID,91.127,VALID,0.100563,VALID,25.2046,VALID,68,VALID,0.645312,
2008-05-10, 00:19:04,VALID,1003.28,VALID,0,VALID,91.1346,VALID,0,VALID,25.1637,VALID,62,VALID,0.258594,
2008-05-10, 00:20:04,VALID,1003.27,VALID,0,VALID,91.2567,VALID,0,VALID,25.1656,VALID,62,VALID,0.337109,
2008-05-10, 00:21:04,VALID,1003.24,VALID,0,VALID,91.4169,VALID,0.100563,VALID,25.1267,VALID,62,VALID,0.413672,
2008-05-10, 00:22:04,VALID,1003.21,VALID,0,VALID,91.5389,VALID,0,VALID,25.1267,VALID,61,VALID,0.351953,
2008-05-10, 00:23:04,VALID,1003.2,VALID,0,VALID,91.5084,VALID,0.100563,VALID,25.0663,VALID,61,VALID,0.478516,
2008-05-10, 00:24:04,VALID,1003.2,VALID,0,VALID,91.661,VALID,0.100563,VALID,25.0274,VALID,61,VALID,0.225,
2008-05-10, 00:25:04,VALID,1003.17,VALID,0,VALID,91.8517,VALID,0.100563,VALID,25.0079,VALID,66,VALID,0.553906,
2008-05-10, 00:26:04,VALID,1003.16,VALID,0,VALID,91.9585,VALID,0,VALID,24.9885,VALID,64,VALID,0.539063,
2008-05-10, 00:27:04,VALID,1003.15,VALID,0,VALID,91.9738,VALID,0.100563,VALID,24.969,VALID,64,VALID,0.226953,
2008-05-10, 00:28:04,VALID,1003.14,VALID,0,VALID,92.2027,VALID,0.100563,VALID,24.969,VALID,72,VALID,0.539063,
2008-05-10, 00:29:04,VALID,1003.14,VALID,0,VALID,92.3171,VALID,0.100563,VALID,25.0274,VALID,75,VALID,0.557813,
2008-05-10, 00:30:04,VALID,1003.13,VALID,0,VALID,92.3018,VALID,0.100563,VALID,25.0663,VALID,85,VALID,0.708984,
2008-05-10, 00:31:04,VALID,1003.16,VALID,0,VALID,92.195,VALID,0,VALID,25.1248,VALID,87,VALID,0.298438,
2008-05-10, 00:32:04,VALID,1003.12,VALID,0,VALID,92.0501,VALID,0.100563,VALID,25.1637,VALID,87,VALID,0.366016,
2008-05-10, 00:33:04,VALID,1003.13,VALID,0,VALID,91.8899,VALID,0.100563,VALID,25.1832,VALID,84,VALID,0.395312,
2008-05-10, 00:34:04,VALID,1003.13,VALID,0,VALID,91.7754,VALID,0.100563,VALID,25.2416,VALID,67,VALID,0.744922,
2008-05-10, 00:35:04,VALID,1003.1,VALID,0,VALID,91.5389,VALID,0.100563,VALID,25.3233,VALID,74,VALID,0.416016,
2008-05-10, 00:36:04,VALID,1003.13,VALID,0,VALID,91.2719,VALID,0.100563,VALID,25.2806,VALID,74,VALID,0.183984,
2008-05-10, 00:37:04,VALID,1003.11,VALID,0,VALID,91.0812,VALID,0.100563,VALID,25.2611,VALID,74,VALID,0,
2008-05-10, 00:38:04,VALID,1003.09,VALID,0,VALID,91.0888,VALID,0.100563,VALID,25.2221,VALID,74,VALID,0.189844,
2008-05-10, 00:39:04,VALID,1003.1,VALID,0,VALID,91.1956,VALID,0.100563,VALID,25.2221,VALID,74,VALID,0.153906,
2008-05-10, 00:40:04,VALID,1003.1,VALID,0,VALID,91.127,VALID,0.100563,VALID,25.1832,VALID,74,VALID,0.00117188,
2008-05-10, 00:41:04,VALID,1003.13,VALID,0,VALID,91.2643,VALID,0,VALID,25.1442,VALID,74,VALID,0.349219,
2008-05-10, 00:42:04,VALID,1003.11,VALID,0,VALID,91.4321,VALID,0,VALID,25.1461,VALID,74,VALID,0.192578,
2008-05-10, 00:43:04,VALID,1003.12,VALID,0,VALID,91.4016,VALID,0.100563,VALID,25.1053,VALID,74,VALID,0.367188,
2008-05-10, 00:44:04,VALID,1003.11,VALID,0,VALID,91.5389,VALID,0.100563,VALID,25.1072,VALID,74,VALID,0.697656,
2008-05-10, 00:45:04,VALID,1003.08,VALID,0,VALID,91.722,VALID,0.100563,VALID,25.1072,VALID,70,VALID,0.433203,
2008-05-10, 00:46:04,VALID,1003.04,VALID,0,VALID,91.4245,VALID,0,VALID,25.0469,VALID,72,VALID,0.535547,
2008-05-10, 00:47:04,VALID,1003.04,VALID,0,VALID,91.5771,VALID,0.100563,VALID,24.9885,VALID,70,VALID,0.376172,
2008-05-10, 00:48:04,VALID,1003.06,VALID,0,VALID,91.8594,VALID,0.100563,VALID,24.9514,VALID,65,VALID,0.536328,
2008-05-10, 00:49:04,VALID,1003.04,VALID,0,VALID,91.9814,VALID,0.100563,VALID,24.8911,VALID,64,VALID,0.365625,
2008-05-10, 00:50:04,VALID,1003.02,VALID,0,VALID,92.2179,VALID,0.100563,VALID,24.8716,VALID,68,VALID,0.414844,
2008-05-10, 00:51:04,VALID,1003.01,VALID,0,VALID,92.4315,VALID,0.100563,VALID,24.8716,VALID,80,VALID,0.432031,
2008-05-10, 00:52:04,VALID,1003,VALID,0,VALID,92.729,VALID,0,VALID,24.9125,VALID,67,VALID,0.619922,
2008-05-10, 00:53:04,VALID,1002.99,VALID,0,VALID,92.7214,VALID,0.100563,VALID,24.93,VALID,71,VALID,0.747266,
2008-05-10, 00:54:04,VALID,1002.98,VALID,0,VALID,92.6299,VALID,0.100563,VALID,25.0079,VALID,74,VALID,0.951953,
2008-05-10, 00:55:04,VALID,1002.97,VALID,0,VALID,92.4315,VALID,0.100563,VALID,25.0839,VALID,71,VALID,0.618359,
2008-05-10, 00:56:04,VALID,1002.98,VALID,0,VALID,92.0882,VALID,0.100563,VALID,25.2046,VALID,80,VALID,0.641016,
2008-05-10, 00:57:04,VALID,1002.96,VALID,0,VALID,91.6991,VALID,0.100563,VALID,25.2416,VALID,83,VALID,0.748438,
2008-05-10, 00:58:04,VALID,1002.95,VALID,0,VALID,91.4626,VALID,0.100563,VALID,25.3,VALID,85,VALID,0.611719,
2008-05-10, 00:59:04,VALID,1002.92,VALID,0,VALID,91.188,VALID,0.100563,VALID,25.3584,VALID,89,VALID,0.425,
2008-05-10, 01:00:04,VALID,1002.95,VALID,0,VALID,90.8523,VALID,0.100563,VALID,25.4169,VALID,87,VALID,0.877344,
2008-05-10, 01:01:04,VALID,1002.93,VALID,0,VALID,90.6387,VALID,0.100563,VALID,25.4577,VALID,93,VALID,0.377344,
2008-05-10, 01:02:04,VALID,1002.95,VALID,0,VALID,90.5243,VALID,0.100563,VALID,25.4363,VALID,93,VALID,0.492578,
2008-05-10, 01:03:04,VALID,1002.91,VALID,0,VALID,90.4404,VALID,0,VALID,25.4363,VALID,68,VALID,0.466797,
2008-05-10, 01:04:04,VALID,1002.94,VALID,0,VALID,90.3336,VALID,0.100563,VALID,25.4558,VALID,36,VALID,0.231641,
2008-05-10, 01:05:04,VALID,1002.93,VALID,0,VALID,90.2649,VALID,0.100563,VALID,25.4558,VALID,38,VALID,0.333203,
2008-05-10, 01:06:04,VALID,1002.92,VALID,0,VALID,90.242,VALID,0,VALID,25.4577,VALID,65,VALID,0.621875,
2008-05-10, 01:07:04,VALID,1002.91,VALID,0,VALID,90.1429,VALID,0,VALID,25.5162,VALID,77,VALID,0.547656,
2008-05-10, 01:08:04,VALID,1002.88,VALID,0,VALID,89.975,VALID,0,VALID,25.5765,VALID,84,VALID,0.386328,
2008-05-10, 01:09:04,VALID,1002.9,VALID,0,VALID,89.8072,VALID,0,VALID,25.5357,VALID,81,VALID,0.843359,
2008-05-10, 01:10:04,VALID,1002.89,VALID,0,VALID,89.7156,VALID,0,VALID,25.5941,VALID,70,VALID,0.702344,
2008-05-10, 01:11:04,VALID,1002.87,VALID,0,VALID,89.5097,VALID,0,VALID,25.5941,VALID,73,VALID,1.13945,
2008-05-10, 01:12:04,VALID,1002.85,VALID,0,VALID,89.4105,VALID,0,VALID,25.6136,VALID,63,VALID,0.518359,
2008-05-10, 01:13:04,VALID,1002.84,VALID,0,VALID,89.3571,VALID,0,VALID,25.6136,VALID,67,VALID,0.666406,
2008-05-10, 01:14:04,VALID,1002.83,VALID,0,VALID,89.3342,VALID,0,VALID,25.6136,VALID,83,VALID,1.24375,
2008-05-10, 01:15:04,VALID,1002.84,VALID,0,VALID,89.296,VALID,0,VALID,25.633,VALID,73,VALID,0.763672,
2008-05-10, 01:16:04,VALID,1002.84,VALID,0,VALID,89.2503,VALID,0,VALID,25.6136,VALID,100,VALID,0.682422,
2008-05-10, 01:17:04,VALID,1002.84,VALID,0,VALID,89.3418,VALID,0,VALID,25.5941,VALID,83,VALID,0.753125,
2008-05-10, 01:18:04,VALID,1002.84,VALID,0,VALID,89.3571,VALID,0,VALID,25.5765,VALID,86,VALID,0.883203,
2008-05-10, 01:19:04,VALID,1002.8,VALID,0,VALID,89.502,VALID,0,VALID,25.5571,VALID,99,VALID,0.614844,
2008-05-10, 01:20:04,VALID,1002.78,VALID,0,VALID,89.5631,VALID,0,VALID,25.5357,VALID,82,VALID,0.638281,
2008-05-10, 01:21:04,VALID,1002.8,VALID,0,VALID,89.6012,VALID,0,VALID,25.5376,VALID,78,VALID,0.837109,
2008-05-10, 01:22:04,VALID,1002.77,VALID,0,VALID,89.6927,VALID,0,VALID,25.5571,VALID,70,VALID,0.655469,
2008-05-10, 01:23:04,VALID,1002.78,VALID,0,VALID,89.769,VALID,0,VALID,25.5162,VALID,99,VALID,0.459375,
2008-05-10, 01:24:04,VALID,1002.79,VALID,0,VALID,89.7996,VALID,0,VALID,25.5376,VALID,60,VALID,0.598437,
2008-05-10, 01:25:04,VALID,1002.81,VALID,0,VALID,89.9216,VALID,0,VALID,25.5181,VALID,109,VALID,0.467969,
2008-05-10, 01:26:04,VALID,1002.81,VALID,0,VALID,89.9292,VALID,0,VALID,25.4967,VALID,109,VALID,0.135547,
2008-05-10, 01:27:04,VALID,1002.83,VALID,0,VALID,89.9598,VALID,0,VALID,25.4772,VALID,97,VALID,0.483594,
2008-05-10, 01:28:04,VALID,1002.81,VALID,0,VALID,89.9979,VALID,0,VALID,25.4577,VALID,96,VALID,0.461328,
2008-05-10, 01:29:04,VALID,1002.8,VALID,0,VALID,90.0513,VALID,0,VALID,25.4597,VALID,96,VALID,0.199219,
2008-05-10, 01:30:04,VALID,1002.81,VALID,0,VALID,90.2039,VALID,0,VALID,25.4383,VALID,96,VALID,0.348047,
2008-05-10, 01:31:04,VALID,1002.79,VALID,0,VALID,90.3412,VALID,0,VALID,25.4188,VALID,96,VALID,0.0328125,
2008-05-10, 01:32:04,VALID,1002.81,VALID,0,VALID,90.4862,VALID,0,VALID,25.4188,VALID,96,VALID,0,
2008-05-10, 01:33:04,VALID,1002.8,VALID,0,VALID,90.5014,VALID,0,VALID,25.3993,VALID,96,VALID,0.178906,
2008-05-10, 01:34:04,VALID,1002.78,VALID,0,VALID,90.5777,VALID,0,VALID,25.3993,VALID,96,VALID,0,
2008-05-10, 01:35:04,VALID,1002.76,VALID,0,VALID,90.6921,VALID,0,VALID,25.3798,VALID,96,VALID,0.0265625,
2008-05-10, 01:36:04,VALID,1002.79,VALID,0,VALID,90.8218,VALID,0,VALID,25.3604,VALID,96,VALID,0,
2008-05-10, 01:37:04,VALID,1002.79,VALID,0,VALID,90.982,VALID,0,VALID,25.3409,VALID,96,VALID,0,
2008-05-10, 01:38:04,VALID,1002.76,VALID,0,VALID,91.0812,VALID,0,VALID,25.3233,VALID,96,VALID,0,
2008-05-10, 01:39:04,VALID,1002.75,VALID,0,VALID,91.2414,VALID,0,VALID,25.2825,VALID,96,VALID,0.307031,
2008-05-10, 01:40:04,VALID,1002.74,VALID,0,VALID,91.4092,VALID,0,VALID,25.2435,VALID,96,VALID,0.320703,
2008-05-10, 01:41:04,VALID,1002.72,VALID,0,VALID,91.5389,VALID,0,VALID,25.2046,VALID,82,VALID,0.583203,
2008-05-10, 01:42:04,VALID,1002.69,VALID,0,VALID,91.5695,VALID,0,VALID,25.1675,VALID,56,VALID,0,
2008-05-10, 01:43:04,VALID,1002.68,VALID,0,VALID,91.6991,VALID,0,VALID,25.0682,VALID,56,VALID,0,
2008-05-10, 01:44:04,VALID,1002.66,VALID,0,VALID,91.9204,VALID,0,VALID,25.0293,VALID,56,VALID,0.323828,
2008-05-10, 01:45:04,VALID,1002.68,VALID,0,VALID,92.1264,VALID,0,VALID,25.0098,VALID,56,VALID,0.194922,
2008-05-10, 01:46:04,VALID,1002.65,VALID,0,VALID,92.3018,VALID,0,VALID,24.9709,VALID,56,VALID,0.277734,
2008-05-10, 01:47:04,VALID,1002.63,VALID,0,VALID,92.5002,VALID,0,VALID,24.9533,VALID,56,VALID,0.345703,
2008-05-10, 01:48:04,VALID,1002.65,VALID,0,VALID,92.7748,VALID,0,VALID,24.9319,VALID,56,VALID,0.366406,
2008-05-10, 01:49:04,VALID,1002.62,VALID,0,VALID,92.8435,VALID,0,VALID,24.9125,VALID,55,VALID,0.341016,
2008-05-10, 01:50:04,VALID,1002.67,VALID,0,VALID,92.9655,VALID,0,VALID,24.9143,VALID,55,VALID,0.427344,
2008-05-10, 01:51:04,VALID,1002.67,VALID,0,VALID,93.0647,VALID,0,VALID,24.9143,VALID,55,VALID,0.277734,
2008-05-10, 01:52:04,VALID,1002.67,VALID,0,VALID,93.1563,VALID,0,VALID,24.8949,VALID,55,VALID,0.184766,
2008-05-10, 01:53:04,VALID,1002.69,VALID,0,VALID,93.1944,VALID,0,VALID,24.854,VALID,55,VALID,0.291016,
2008-05-10, 01:54:04,VALID,1002.68,VALID,0,VALID,93.2707,VALID,0,VALID,24.8346,VALID,55,VALID,0.166406,
2008-05-10, 01:55:04,VALID,1002.71,VALID,0,VALID,93.3546,VALID,0,VALID,24.8151,VALID,55,VALID,0.327734,
2008-05-10, 01:56:04,VALID,1002.7,VALID,0,VALID,93.4538,VALID,0,VALID,24.817,VALID,55,VALID,0.332031,
2008-05-10, 01:57:04,VALID,1002.69,VALID,0,VALID,93.553,VALID,0,VALID,24.7956,VALID,55,VALID,0.296484,
2008-05-10, 01:58:04,VALID,1002.68,VALID,0,VALID,93.6445,VALID,0,VALID,24.7761,VALID,55,VALID,0.412109,
2008-05-10, 01:59:04,VALID,1002.68,VALID,0,VALID,93.6826,VALID,0,VALID,24.817,VALID,55,VALID,0.392188,
2008-05-10, 02:00:04,VALID,1002.65,VALID,0,VALID,93.7437,VALID,0,VALID,24.7956,VALID,55,VALID,0.323047,
2008-05-10, 02:01:04,VALID,1002.63,VALID,0,VALID,93.7666,VALID,0,VALID,24.778,VALID,55,VALID,0.279297,
2008-05-10, 02:02:04,VALID,1002.59,VALID,0,VALID,93.7818,VALID,0,VALID,24.7567,VALID,55,VALID,0.227344,
2008-05-10, 02:03:04,VALID,1002.57,VALID,0,VALID,93.8429,VALID,0,VALID,24.7567,VALID,55,VALID,0.114063,
2008-05-10, 02:04:04,VALID,1002.58,VALID,0,VALID,93.9649,VALID,0,VALID,24.7567,VALID,55,VALID,0.00820312,
2008-05-10, 02:05:04,VALID,1002.54,VALID,0,VALID,93.9802,VALID,0,VALID,24.778,VALID,55,VALID,0,
2008-05-10, 02:06:04,VALID,1002.55,VALID,0,VALID,93.9802,VALID,0,VALID,24.7567,VALID,55,VALID,0.0113281,
2008-05-10, 02:07:04,VALID,1002.51,VALID,0,VALID,93.9802,VALID,0,VALID,24.7761,VALID,55,VALID,0,
2008-05-10, 02:08:04,VALID,1002.51,VALID,0,VALID,94.0336,VALID,0,VALID,24.7567,VALID,55,VALID,0,
2008-05-10, 02:09:04,VALID,1002.48,VALID,0,VALID,94.0641,VALID,0,VALID,24.7975,VALID,55,VALID,0,
2008-05-10, 02:10:04,VALID,1002.5,VALID,0,VALID,94.0412,VALID,0,VALID,24.7761,VALID,55,VALID,0,
2008-05-10, 02:11:04,VALID,1002.48,VALID,0,VALID,94.0259,VALID,0,VALID,24.7761,VALID,55,VALID,0,
2008-05-10, 02:12:04,VALID,1002.52,VALID,0,VALID,94.0412,VALID,0,VALID,24.7975,VALID,55,VALID,0,
2008-05-10, 02:13:04,VALID,1002.49,VALID,0,VALID,94.0565,VALID,0,VALID,24.7975,VALID,55,VALID,0.433984,
2008-05-10, 02:14:04,VALID,1002.51,VALID,0,VALID,94.0412,VALID,0,VALID,24.7567,VALID,55,VALID,0.2125,
2008-05-10, 02:15:04,VALID,1002.5,VALID,0,VALID,94.0565,VALID,0,VALID,24.7372,VALID,55,VALID,0,
2008-05-10, 02:16:04,VALID,1002.54,VALID,0,VALID,94.0717,VALID,0,VALID,24.7372,VALID,55,VALID,0,
2008-05-10, 02:17:04,VALID,1002.54,VALID,0,VALID,94.1556,VALID,0,VALID,24.7586,VALID,55,VALID,0,
2008-05-10, 02:18:04,VALID,1002.52,VALID,0,VALID,94.209,VALID,0,VALID,24.7372,VALID,55,VALID,0,
2008-05-10, 02:19:04,VALID,1002.55,VALID,0,VALID,94.2548,VALID,0,VALID,24.778,VALID,55,VALID,0,
2008-05-10, 02:20:04,VALID,1002.58,VALID,0,VALID,94.3311,VALID,0,VALID,24.7586,VALID,55,VALID,0,
2008-05-10, 02:21:04,VALID,1002.58,VALID,0,VALID,94.3692,VALID,0,VALID,24.7975,VALID,55,VALID,0,
2008-05-10, 02:22:04,VALID,1002.63,VALID,0,VALID,94.3387,VALID,0,VALID,24.7567,VALID,55,VALID,0,
2008-05-10, 02:23:04,VALID,1002.6,VALID,0,VALID,94.354,VALID,0,VALID,24.7761,VALID,55,VALID,0,
2008-05-10, 02:24:04,VALID,1002.64,VALID,0,VALID,94.3921,VALID,0,VALID,24.7567,VALID,55,VALID,0,
2008-05-10, 02:25:04,VALID,1002.63,VALID,0,VALID,94.3921,VALID,0,VALID,24.7567,VALID,55,VALID,0,
2008-05-10, 02:26:04,VALID,1002.63,VALID,0,VALID,94.4074,VALID,0,VALID,24.7567,VALID,55,VALID,0,
2008-05-10, 02:27:04,VALID,1002.61,VALID,0,VALID,94.4379,VALID,0,VALID,24.7567,VALID,55,VALID,0,
2008-05-10, 02:28:04,VALID,1002.64,VALID,0,VALID,94.5066,VALID,0,VALID,24.7567,VALID,55,VALID,0,
2008-05-10, 02:29:04,VALID,1002.61,VALID,0,VALID,94.5295,VALID,0,VALID,24.7567,VALID,55,VALID,0,
2008-05-10, 02:30:04,VALID,1002.63,VALID,0,VALID,94.5371,VALID,0,VALID,24.7761,VALID,55,VALID,0,
2008-05-10, 02:31:04,VALID,1002.62,VALID,0,VALID,94.4913,VALID,0,VALID,24.7761,VALID,55,VALID,0,
2008-05-10, 02:32:04,VALID,1002.64,VALID,0,VALID,94.4837,VALID,0,VALID,24.7761,VALID,55,VALID,0,
2008-05-10, 02:33:04,VALID,1002.63,VALID,0,VALID,94.4913,VALID,0,VALID,24.7761,VALID,55,VALID,0,
2008-05-10, 02:34:04,VALID,1002.63,VALID,0,VALID,94.4913,VALID,0,VALID,24.7761,VALID,55,VALID,0,
2008-05-10, 02:35:04,VALID,1002.63,VALID,0,VALID,94.4989,VALID,0,VALID,24.778,VALID,55,VALID,0,
2008-05-10, 02:36:04,VALID,1002.62,VALID,0,VALID,94.5523,VALID,0,VALID,24.7743,VALID,55,VALID,0,
2008-05-10, 02:37:04,VALID,1002.61,VALID,0,VALID,94.5523,VALID,0.100563,VALID,24.7529,VALID,55,VALID,0,
2008-05-10, 02:38:04,VALID,1002.62,VALID,0,VALID,94.5905,VALID,0.100563,VALID,24.7937,VALID,55,VALID,0,
2008-05-10, 02:39:04,VALID,1002.61,VALID,0,VALID,94.621,VALID,0.100563,VALID,24.7937,VALID,55,VALID,0,
2008-05-10, 02:40:04,VALID,1002.59,VALID,0,VALID,94.621,VALID,0,VALID,24.7724,VALID,55,VALID,0,
2008-05-10, 02:41:04,VALID,1002.59,VALID,0,VALID,94.6134,VALID,0.100563,VALID,24.8132,VALID,50,VALID,0.299609,
2008-05-10, 02:42:04,VALID,1002.59,VALID,0,VALID,94.6134,VALID,0,VALID,24.8346,VALID,49,VALID,0.423438,
2008-05-10, 02:43:04,VALID,1002.58,VALID,0,VALID,94.6057,VALID,0,VALID,24.8327,VALID,29,VALID,0.439844,
2008-05-10, 02:44:04,VALID,1002.58,VALID,0,VALID,94.6057,VALID,0.100563,VALID,24.8522,VALID,16,VALID,0.495703,
2008-05-10, 02:45:04,VALID,1002.59,VALID,0,VALID,94.5752,VALID,0.100563,VALID,24.8716,VALID,359,VALID,0.592969,
2008-05-10, 02:46:04,VALID,1002.61,VALID,0,VALID,94.5142,VALID,0.100563,VALID,24.8716,VALID,358,VALID,0.630469,
2008-05-10, 02:47:04,VALID,1002.61,VALID,0,VALID,94.4608,VALID,0,VALID,24.8522,VALID,357,VALID,0.671484,
2008-05-10, 02:48:04,VALID,1002.62,VALID,0,VALID,94.4379,VALID,0.100563,VALID,24.8522,VALID,355,VALID,0.530859,
2008-05-10, 02:49:04,VALID,1002.61,VALID,0,VALID,94.415,VALID,0,VALID,24.8735,VALID,355,VALID,0.68125,
2008-05-10, 02:50:04,VALID,1002.63,VALID,0,VALID,94.4227,VALID,0.100563,VALID,24.8735,VALID,350,VALID,0.727344,
2008-05-10, 02:51:04,VALID,1002.61,VALID,0,VALID,94.4074,VALID,0,VALID,24.854,VALID,348,VALID,0.600391,
2008-05-10, 02:52:04,VALID,1002.63,VALID,0,VALID,94.3921,VALID,0,VALID,24.8346,VALID,350,VALID,0.853906,
2008-05-10, 02:53:04,VALID,1002.6,VALID,0,VALID,94.3616,VALID,0,VALID,24.8346,VALID,343,VALID,0.693359,
2008-05-10, 02:54:04,VALID,1002.61,VALID,0,VALID,94.3616,VALID,0,VALID,24.8346,VALID,351,VALID,0.909766,
2008-05-10, 02:55:04,VALID,1002.6,VALID,0,VALID,94.3158,VALID,0,VALID,24.8151,VALID,355,VALID,0.654297,
2008-05-10, 02:56:04,VALID,1002.58,VALID,0,VALID,94.293,VALID,0,VALID,24.8151,VALID,347,VALID,0.528125,
2008-05-10, 02:57:04,VALID,1002.6,VALID,0,VALID,94.2472,VALID,0,VALID,24.8151,VALID,348,VALID,0.775781,
2008-05-10, 02:58:04,VALID,1002.59,VALID,0,VALID,94.2396,VALID,0,VALID,24.8364,VALID,348,VALID,0.513281,
2008-05-10, 02:59:04,VALID,1002.57,VALID,0,VALID,94.2167,VALID,0,VALID,24.7956,VALID,349,VALID,0.459766,
2008-05-10, 03:00:04,VALID,1002.57,VALID,0,VALID,94.2243,VALID,0,VALID,24.7956,VALID,349,VALID,0.415234,
2008-05-10, 03:01:04,VALID,1002.58,VALID,0,VALID,94.2548,VALID,0,VALID,24.7761,VALID,349,VALID,0.459766,
2008-05-10, 03:02:04,VALID,1002.56,VALID,0,VALID,94.2167,VALID,0,VALID,24.7761,VALID,349,VALID,0.550781,
2008-05-10, 03:03:04,VALID,1002.56,VALID,0,VALID,94.2548,VALID,0,VALID,24.7372,VALID,349,VALID,0.467187,
2008-05-10, 03:04:04,VALID,1002.52,VALID,0,VALID,94.2548,VALID,0,VALID,24.7177,VALID,349,VALID,0.404297,
2008-05-10, 03:05:04,VALID,1002.5,VALID,0,VALID,94.3158,VALID,0,VALID,24.7177,VALID,349,VALID,0.361328,
2008-05-10, 03:06:04,VALID,1002.54,VALID,0,VALID,94.3769,VALID,0,VALID,24.6983,VALID,349,VALID,0.458984,
2008-05-10, 03:07:04,VALID,1002.52,VALID,0,VALID,94.3998,VALID,0,VALID,24.7196,VALID,349,VALID,0.312891,
2008-05-10, 03:08:04,VALID,1002.53,VALID,0,VALID,94.4532,VALID,0,VALID,24.6807,VALID,349,VALID,0.273438,
2008-05-10, 03:09:04,VALID,1002.52,VALID,0,VALID,94.4837,VALID,0,VALID,24.6807,VALID,349,VALID,0.124609,
2008-05-10, 03:10:04,VALID,1002.54,VALID,0,VALID,94.4761,VALID,0,VALID,24.6612,VALID,349,VALID,0,
2008-05-10, 03:11:04,VALID,1002.54,VALID,0,VALID,94.4761,VALID,0,VALID,24.6204,VALID,349,VALID,0,
2008-05-10, 03:12:04,VALID,1002.54,VALID,0,VALID,94.5218,VALID,0,VALID,24.6222,VALID,349,VALID,0,
2008-05-10, 03:13:04,VALID,1002.56,VALID,0,VALID,94.621,VALID,0,VALID,24.6204,VALID,349,VALID,0,
2008-05-10, 03:14:04,VALID,1002.55,VALID,0,VALID,94.7125,VALID,0,VALID,24.6417,VALID,358,VALID,0,
2008-05-10, 03:15:04,VALID,1002.54,VALID,0,VALID,94.9338,VALID,0,VALID,24.6788,VALID,56,VALID,0.585547,
2008-05-10, 03:16:04,VALID,1002.53,VALID,0,VALID,94.949,VALID,0,VALID,24.7177,VALID,62,VALID,0.298828,
2008-05-10, 03:17:04,VALID,1002.52,VALID,0,VALID,94.9872,VALID,0,VALID,24.7956,VALID,87,VALID,0.723047,
2008-05-10, 03:18:04,VALID,1002.5,VALID,0,VALID,94.888,VALID,0,VALID,24.854,VALID,71,VALID,0.165234,
2008-05-10, 03:19:04,VALID,1002.51,VALID,0,VALID,94.7736,VALID,0,VALID,24.8949,VALID,29,VALID,0.531641,
2008-05-10, 03:20:04,VALID,1002.49,VALID,0,VALID,94.6744,VALID,0,VALID,24.9125,VALID,27,VALID,0.143359,
2008-05-10, 03:21:04,VALID,1002.48,VALID,0,VALID,94.5905,VALID,0,VALID,24.9514,VALID,27,VALID,0.421875,
2008-05-10, 03:22:04,VALID,1002.48,VALID,0,VALID,94.5371,VALID,0.100563,VALID,25.0098,VALID,28,VALID,0.313672,
2008-05-10, 03:23:04,VALID,1002.49,VALID,0,VALID,94.4227,VALID,0,VALID,25.0682,VALID,26,VALID,0.265234,
2008-05-10, 03:24:04,VALID,1002.48,VALID,0,VALID,94.2243,VALID,0,VALID,25.1072,VALID,26,VALID,0,
2008-05-10, 03:25:04,VALID,1002.52,VALID,0,VALID,94.0717,VALID,0,VALID,25.1072,VALID,26,VALID,0,
2008-05-10, 03:26:04,VALID,1002.51,VALID,0,VALID,93.9268,VALID,0,VALID,25.1053,VALID,26,VALID,0,
2008-05-10, 03:27:04,VALID,1002.55,VALID,0,VALID,93.8429,VALID,0,VALID,25.1461,VALID,26,VALID,0.425,
2008-05-10, 03:28:04,VALID,1002.57,VALID,0,VALID,93.6826,VALID,0,VALID,25.1656,VALID,67,VALID,0.599219,
2008-05-10, 03:29:04,VALID,1002.59,VALID,0,VALID,93.4919,VALID,0,VALID,25.1656,VALID,89,VALID,0.822656,
2008-05-10, 03:30:04,VALID,1002.64,VALID,0,VALID,93.3775,VALID,0,VALID,25.1656,VALID,92,VALID,0.798828,
2008-05-10, 03:31:04,VALID,1002.62,VALID,0,VALID,93.347,VALID,0.100563,VALID,25.1656,VALID,86,VALID,0.471875,
2008-05-10, 03:32:04,VALID,1002.62,VALID,0,VALID,93.3088,VALID,0.100563,VALID,25.1851,VALID,85,VALID,0.396484,
2008-05-10, 03:33:04,VALID,1002.62,VALID,0,VALID,93.202,VALID,0.100563,VALID,25.1851,VALID,75,VALID,0.648047,
2008-05-10, 03:34:04,VALID,1002.61,VALID,0,VALID,93.0495,VALID,0,VALID,25.224,VALID,84,VALID,0.736328,
2008-05-10, 03:35:04,VALID,1002.59,VALID,0,VALID,92.8511,VALID,0.100563,VALID,25.2435,VALID,77,VALID,0.449609,
2008-05-10, 03:36:04,VALID,1002.57,VALID,0,VALID,92.729,VALID,0.100563,VALID,25.2221,VALID,77,VALID,0.193359,
2008-05-10, 03:37:04,VALID,1002.55,VALID,0,VALID,92.6451,VALID,0,VALID,25.2435,VALID,82,VALID,0.583203,
2008-05-10, 03:38:04,VALID,1002.52,VALID,0,VALID,92.5917,VALID,0,VALID,25.2221,VALID,49,VALID,0.429297,
2008-05-10, 03:39:04,VALID,1002.51,VALID,0,VALID,92.5154,VALID,0,VALID,25.2416,VALID,49,VALID,0.0757812,
2008-05-10, 03:40:04,VALID,1002.52,VALID,0,VALID,92.5688,VALID,0,VALID,25.263,VALID,49,VALID,0.577734,
2008-05-10, 03:41:04,VALID,1002.54,VALID,0,VALID,92.5383,VALID,0,VALID,25.2825,VALID,77,VALID,0.385938,
2008-05-10, 03:42:04,VALID,1002.51,VALID,0,VALID,92.462,VALID,0,VALID,25.2416,VALID,78,VALID,0.382031,
2008-05-10, 03:43:04,VALID,1002.54,VALID,0,VALID,92.4773,VALID,0.100563,VALID,25.2825,VALID,17,VALID,0.397656,
2008-05-10, 03:44:04,VALID,1002.55,VALID,0,VALID,92.4086,VALID,0,VALID,25.2825,VALID,67,VALID,0.371484,
2008-05-10, 03:45:04,VALID,1002.56,VALID,0,VALID,92.3705,VALID,0,VALID,25.263,VALID,86,VALID,0.191016,